Miscellaneous Local Product
Issued by NWS Hastings, NE

Home | Current Version | Previous Version | Text Only | Print | Product List | Glossary Off
Versions: 1 2 3 4 5 6 7 8 9 10 11 12 13 14 15 16 17 18 19 20 21 22 23 24 25 26 27 28 29 30 31 32 33 34 35 36 37 38 39 40 41 42 43 44 45 46 47 48 49 50

000
AXUS43 KGID 271602
MISGRI

GID CWA HOURLY WEATHER ROUNDUP
NATIONAL WEATHER SERVICE HASTINGS NE
1100 AM CDT WED JUL 27 2016

NOTE: "FAIR" INDICATES FEW OR NO CLOUDS BELOW 12,000 FEET WITH NO
SIGNIFICANT WEATHER AND/OR OBSTRUCTIONS TO VISIBILITY.

...SOUTH CENTRAL NEBRASKA...

CITY           SKY/WX    TMP DP  RH WIND       PRES   REMARKS
GRAND ISLAND   SUNNY     77  64  64 NE12      30.07F
HASTINGS       MOSUNNY   73  63  70 NE10      30.09R
KEARNEY        SUNNY     77  18  10 NE10      30.10R
ORD            MOSUNNY   75  62  64 NE8       30.09R
YORK           SUNNY     75  64  69 CALM      30.05F
AURORA         SUNNY     76  66  71 N8        30.07S
LEXINGTON      SUNNY    N/A N/A N/A NW6       30.08F
HOLDREGE       SUNNY     75  64  67 NW7       30.07R
HEBRON         PTSUNNY   78  66  66 N10       30.04F

...NEBRASKA PANHANDLE...

CITY           SKY/WX    TMP DP  RH WIND       PRES   REMARKS
CHADRON        PTSUNNY   74  61  63 W8        30.08F
ALLIANCE       PTSUNNY   70  61  73 VRB3      30.13F
SCOTTSBLUFF    CLOUDY    74  60  61 E3        30.16R
SIDNEY         SUNNY     71  58  63 VRB6      30.18F

...WESTERN AND NORTH CENTRAL NEBRASKA...

CITY           SKY/WX    TMP DP  RH WIND       PRES   REMARKS
VALENTINE      MOSUNNY   78  58  49 MISG      30.09F
AINSWORTH      SUNNY     75  62  64 W3        30.11F
ONEILL         SUNNY     76  58  53 NW3       30.08S
BROKEN BOW     MOSUNNY   74  66  76 NE8       30.12R
IMPERIAL       MOSUNNY   75  61  61 W8        30.14R
NORTH PLATTE   MOSUNNY   70  62  76 NW13      30.15R
MCCOOK         PTSUNNY   73  62  68 N6        30.08R

...EASTERN NEBRASKA...

CITY           SKY/WX    TMP DP  RH WIND       PRES   REMARKS
NORFOLK        SUNNY     79  62  56 N17       30.03F
SO SIOUX CITY  CLOUDY    79  68  69 VRB3      30.00S
TEKAMAH        CLOUDY    79  68  69 CALM      29.99R
COLUMBUS       SUNNY     77  64  65 N10       30.02F
ALBION         SUNNY     74  65  74 N10       30.06F
OMAHA EPPLEY   CLOUDY    82  69  64 S13       29.98F
OFFUTT AFB     CLOUDY    81  70  69 VRB7      29.99F
MILLARD        MOSUNNY   82  70  67 SW7       29.99F
LINCOLN        SUNNY     82  63  52 SW10      30.01F
NEBRASKA CITY  PTSUNNY   78  71  79 W7        30.04R
BEATRICE       PTSUNNY   79  68  70 N9        30.04S
FALLS CITY     CLOUDY    82  71  69 VRB5      30.02R

...NORTHERN KANSAS...

CITY           SKY/WX    TMP DP  RH WIND       PRES   REMARKS
GOODLAND       SUNNY     76  66  71 SW7       30.13R
HILL CITY      PTSUNNY   79  64  60 CALM      30.06R
NORTON         SUNNY     81  54  39 SW5       30.06R
SMITH CENTER   SUNNY     79  63  57 CALM      30.04R
BELOIT         SUNNY     81  70  69 CALM      30.01R
HAYS           MOSUNNY   81  63  54 S3        30.04R
RUSSELL        CLOUDY    81  70  69 E5        30.02S
CONCORDIA      CLOUDY    79  69  71 E3        30.03S
SALINA         CLOUDY    85  72  65 CALM      30.01R HX  91
TOPEKA         SUNNY     84  70  62 SE5       29.99R



USA.gov is the U.S. government's official web portal to all federal, state and local government web resources and services.